Location: Chiroubles
(46.1812°N, 4.6660°E)
Time: 02:24:42
(UTC+00:00)

Tiros 1 - Pass Details

Date: 01 December 2020
Orbit: 630 x 663 km, 48.4° (Epoch: 16 January)

Event Time Altitude Azimuth Distance (km) Brightness Sun altitude
Rises 17:43:46 0° 283° (WNW) 2,993 11.7 -17.8°
Reaches altitude 10° 17:46:08 10° 285° (WNW) 2,077 10.7 -18.2°
Maximum altitude 17:50:56 75° 11° (NNE) 683 7.1 -19.1°
Enters shadow 17:52:29 42° 87° (E) 929 7.4 -19.3°
